{"data":{"norad_id":63188,"intl_designator":"2025-048F","name":"STARLINK-11642 [DTC]","alt_names":[],"object_type":"PAYLOAD","status":"ACTIVE","operator":null,"country":"US","launch_date":"2025-03-13","launch_site_code":"AFETR","launch_vehicle":null,"mission":null,"orbit_class":"UNKNOWN","rcs_meters":null,"size_class":null,"mass_kg":null,"dimensions":null,"purposes":["comms"],"wikipedia_slug":null,"has_3d_model":false,"image_url":null,"decayed_at":null,"tle_current":{"epoch":"2026-09-21T22:18:19.496448Z","epoch_age_seconds":38762,"freshness":"FRESH","line1":"1 63188U 25048F   26264.92939232  .00222363  00000+0  16766-2 0  9999","line2":"2 63188  42.9991 217.1112 0002396 218.7467 141.3229 15.71035028 89384","mean_motion":15.71035028,"eccentricity":0.0002396,"inclination_deg":42.9991,"raan_deg":217.1112,"arg_perigee_deg":218.7467,"mean_anomaly_deg":141.3229,"bstar":0.0016766,"rev_number":8938,"period_min":91.659318496112,"perigee_km":354.32420841456,"apogee_km":357.55117700731,"semimajor_km":6734.0746927109,"source":"CELESTRAK","updated_at":"2026-09-22T09:00:49.795474Z"}}}